Skip Page Navigation
NASA JPL Caltech
NASA Logo - Jet Propulsion Laboratory + View the NASA Portal
+ Near-Earth Object (NEO) Program
Search JPL
JPL Home Earth Solar System Stars & Galaxies Technology
JPL Solar System Dynamics
BODIES ORBITS EPHEMERIDES TOOLS PHYSICAL DATA DISCOVERY FAQ SITE MAP
JPL Small-Body Database Browser
Search: [ help ]  
120602 (1995 VZ1)
Classification: Main-belt Asteroid          SPK-ID: 2120602
Ephemeris | Orbit Diagram | Orbital Elements | Physical Parameters | Discovery Circumstances | Close-Approach Data ]

[ show orbit diagram ]
Orbital Elements at Epoch 2457000.5 (2014-Dec-09.0) TDB
Reference: JPL 15 (heliocentric ecliptic J2000)
 Element Value Uncertainty (1-sigma)   Units 
e .1111930299075858 8.861e-08  
a 2.725936378424283 2.8865e-08 AU
q 2.422831253171976 2.3943e-07 AU
i 5.892000785365256 7.5679e-06 deg
node 65.67458483317257 7.319e-05 deg
peri 341.1047207204271 8.0926e-05 deg
M 86.55170813279994 3.3076e-05 deg
tp 2456605.274331623809
(2013-Nov-08.77433162)
0.00015029 JED
period 1643.887147751267
4.50
2.6111e-05
7.149e-08
d
yr
n .2189931349560443 3.4784e-09 deg/d
Q 3.029041503676591 3.2075e-08 AU
  Orbit Determination Parameters
   # obs. used (total)      398  
   data-arc span      8022 days (21.96 yr)  
   first obs. used      1993-04-22  
   last obs. used      2015-04-09  
   planetary ephem.      DE431  
   SB-pert. ephem.      SB431-BIG16  
   condition code      0  
   fit RMS      .57092  
   data source      ORB  
   producer      Otto Matic  
   solution date      2015-Jun-04 20:34:11  

Additional Information
 Earth MOID = 1.43327 AU 
 T_jup = 3.340 
[ show covariance matrix ]

Ephemeris | Orbit Diagram | Orbital Elements | Physical Parameters | Discovery Circumstances | Close-Approach Data ]

Physical Parameter Table
Parameter Symbol Value Units Sigma Reference Notes
absolute magnitude H 15.7 mag n/a MPO320374  

120602 (1995 VZ1)          Discovered 1995-Nov-11 by BAO Schmidt CCD Asteroid Program at Xinglong
Reference: 20060314/Numbers.arcLast Updated: 2006-03-23

[ show close-approach data ]
Ephemeris | Orbit Diagram | Orbital Elements | Physical Parameters | Discovery Circumstances | Close-Approach Data ]
ABOUT SSD CREDITS/AWARDS PRIVACY/COPYRIGHT GLOSSARY LINKS
FirstGov 2015-Sep-04 10:25 UT
(server date/time)  
NASA Home Page
Site Manager:   Ryan S. Park
Webmaster  Alan B. Chamberlin